Regional Weather Roundup
Issued by NWS New Orleans/Baton Rouge, LA

Home | Current Version | Previous Version | Text Only | Print | Product List | Glossary On
Versions: 1 2 3 4 5 6 7 8 9 10 11 12 13 14 15 16 17 18 19 20 21 22 23 24 25 26 27 28 29 30 31 32 33 34 35 36 37 38 39 40 41 42 43 44 45 46 47 48 49 50
384
ASUS44 KLIX 201501
RWRLIX
NEW ORLEANS REGIONAL WEATHER ROUNDUP
NATIONAL WEATHER SERVICE NEW ORLEANS LA
1000 AM CDT WED AUG 20 2014

NOTE: "FAIR" INDICATES FEW OR NO CLOUDS BELOW 12,000 FEET WITH NO
      SIGNIFICANT WEATHER AND/OR OBSTRUCTIONS TO VISIBILITY.
      SKY/WX - SKY CONDITION AND SIGNIFICANT WEATHER.
      TMP - AIR TEMPERATURE.     DP    - DEWPOINT TEMPERATURE.
      RH  - RELATIVE HUMIDITY.   PRES  - PRESSURE.
      HI  - HEAT INDEX.          WCI   - WIND CHILL INDEX.

*  THESE STATIONS ARE NOT NWS OR FAA STATIONS AND ARE NOT UNDER
   NWS QUALITY CONTROL.

LAZ038-040-048-061>063-065>067-069-201600-
SOUTHEAST LOUISIANA

CITY           SKY/WX    TMP DP  RH WIND       PRES   REMARKS
N.O. AUDUBON   NOT AVBL
N.O. INTL ARPT PTSUNNY   88  77  69 S6        30.07R HX 100
N.O. LAKEFRONT SUNNY    N/A N/A N/A NE6       30.08R
N.O. DOWNTOWN*   N/A     88  73  62 S5        30.08S HX  96
SLIDELL        MOSUNNY   86  76  71 CALM      30.08R HX  96
BATON ROUGE    MOSUNNY   87  75  67 VRB3      30.07R HX  96
BOOTHVILLE     SUNNY     88  76  67 S6        30.09R HX  99
BELLE CHASSE   PTSUNNY   87  74  64 CALM      30.07R HX  95
BOGALUSA*        N/A     86  75  68 W3        30.10S HX  95
GALLIANO*      NOT AVBL
NEW ROADS*       N/A     84  77  78 CALM      30.07R
GONZALES*        N/A     87  78  76 SE3       30.06R HX 100
HAMMOND*       NOT AVBL
HOUMA*         MOSUNNY   90  73  58 S5        30.07R HX  98
PORT FOURCHON* MOSUNNY   90  77  66 SW8       30.09R HX 102

$$

MSZ070-080>082-201600-
SOUTHERN MISSISSIPPI

CITY           SKY/WX    TMP DP  RH WIND       PRES   REMARKS
MCCOMB         SUNNY     85  73  67 SW9       30.09R
GULFPORT       MOSUNNY   87  74  64 W3        30.09R HX  95
BILOXI         MOSUNNY   89  76  66 VRB1      30.09R HX  99
PASCAGOULA     MOSUNNY   88  75  65 CALM      30.09R HX  97
STENNIS ARPT*  MOSUNNY  N/A N/A N/A CALM      30.09R

$$

COASTAL OBSERVATIONS
LAKE AND NEARSHORE STATIONS

STATION/POSITION TIME  TEMP    WIND        PRES    WAVE
                       AIR SEA DIR/SP/G            HT/PER
                 (UTC) (F)     (DEG/KT/KT) (MB)    (FT/S)
PASCAGOULA       1400   87     250/  6/  8 1018.4
WAVELAND YACHT   1400   84      50/  4/  5 1018.1
GRAND ISLE       1400   87 87  220/  5/  6 1019.0
SOUTHWEST PASS   1400   87 88  200/  3/  5 1019.0
NEW CANAL        1400   84 83   40/  5/  5 1018.8
SHELL BEACH      1400   86 82   CALM  /  2 1018.5

OFFSHORE STATIONS

STATION/POSITION TIME  TEMP    WIND        PRES    WAVE
                       AIR SEA DIR/SP/G            HT/PER
                 (UTC) (F)     (DEG/KT/KT) (MB)    (FT/S)
64 S DAUPHIN ISL 1354   86 88  290/  4/  6 1019.4

$$




USA.gov is the U.S. government's official web portal to all federal, state and local government web resources and services.